Time,TemperatureF,DewpointF,PressureIn,WindDirection,WindDirectionDegrees,WindSpeedMPH,WindSpeedGustMPH,Humidity,HourlyPrecipIn,Conditions,Clouds,dailyrainin,SoftwareType,DateUTC
2013-09-11 00:06:00,75.6,67.0,29.90,West,278,0.0,0.0,75,0.00,,,0.00,weatherlink.com 1.10,2013-09-11 04:06:00,
2013-09-11 00:21:00,75.6,67.0,29.91,SW,218,0.0,0.0,74,0.00,,,0.00,weatherlink.com 1.10,2013-09-11 04:21:00,
2013-09-11 00:36:00,75.9,67.0,29.90,SW,219,0.0,0.0,73,0.00,,,0.00,weatherlink.com 1.10,2013-09-11 04:36:00,
2013-09-11 00:51:00,76.0,67.0,29.90,SW,219,0.0,0.0,73,0.00,,,0.00,weatherlink.com 1.10,2013-09-11 04:51:00,
2013-09-11 01:06:00,76.0,67.0,29.90,SW,228,0.0,0.0,74,0.00,,,0.00,weatherlink.com 1.10,2013-09-11 05:06:00,
2013-09-11 01:21:00,76.0,67.0,29.90,SW,227,0.0,0.0,73,0.00,,,0.00,weatherlink.com 1.10,2013-09-11 05:21:00,
2013-09-11 01:36:00,75.9,67.0,29.90,WSW,240,0.0,0.0,74,0.00,,,0.00,weatherlink.com 1.10,2013-09-11 05:36:00,
2013-09-11 01:51:00,75.5,67.0,29.91,SSE,149,0.0,0.0,75,0.00,,,0.00,weatherlink.com 1.10,2013-09-11 05:51:00,
2013-09-11 02:06:00,75.5,67.0,29.90,WSW,253,0.0,0.0,75,0.00,,,0.00,weatherlink.com 1.10,2013-09-11 06:06:00,
2013-09-11 02:21:00,75.9,67.0,29.90,West,270,0.0,0.0,74,0.00,,,0.00,weatherlink.com 1.10,2013-09-11 06:21:00,
2013-09-11 02:36:00,77.0,68.0,29.91,SE,143,0.0,0.0,73,0.00,,,0.00,weatherlink.com 1.10,2013-09-11 06:36:00,
2013-09-11 02:51:00,76.7,67.0,29.91,SW,224,0.0,0.0,72,0.00,,,0.00,weatherlink.com 1.10,2013-09-11 06:51:00,
2013-09-11 03:06:00,76.6,67.0,29.91,SW,231,0.0,0.0,72,0.00,,,0.00,weatherlink.com 1.10,2013-09-11 07:06:00,
2013-09-11 03:21:00,76.5,67.0,29.91,SW,222,0.0,0.0,72,0.00,,,0.00,weatherlink.com 1.10,2013-09-11 07:21:00,
2013-09-11 03:36:00,76.2,67.0,29.91,SW,214,0.0,0.0,73,0.00,,,0.00,weatherlink.com 1.10,2013-09-11 07:36:00,
2013-09-11 03:51:00,75.7,67.0,29.91,SSE,159,0.0,0.0,74,0.00,,,0.00,weatherlink.com 1.10,2013-09-11 07:51:00,
2013-09-11 04:06:00,75.3,67.0,29.91,WSW,240,0.0,0.0,74,0.00,,,0.00,weatherlink.com 1.10,2013-09-11 08:06:00,
2013-09-11 04:21:00,75.2,67.0,29.91,SW,233,0.0,0.0,75,0.00,,,0.00,weatherlink.com 1.10,2013-09-11 08:21:00,
2013-09-11 04:37:00,75.0,67.0,29.91,West,276,0.0,0.0,76,0.00,,,0.00,weatherlink.com 1.10,2013-09-11 08:37:00,
2013-09-11 04:52:00,75.0,67.0,29.91,WSW,250,0.0,0.0,76,0.00,,,0.00,weatherlink.com 1.10,2013-09-11 08:52:00,
2013-09-11 05:07:00,74.8,67.0,29.91,WSW,250,0.0,0.0,77,0.00,,,0.00,weatherlink.com 1.10,2013-09-11 09:07:00,
2013-09-11 05:22:00,74.4,67.0,29.91,WSW,255,0.0,0.0,78,0.00,,,0.00,weatherlink.com 1.10,2013-09-11 09:22:00,
2013-09-11 05:37:00,74.4,68.0,29.91,WSW,252,0.0,0.0,79,0.00,,,0.00,weatherlink.com 1.10,2013-09-11 09:37:00,
2013-09-11 05:52:00,74.1,67.0,29.91,WSW,245,0.0,0.0,79,0.00,,,0.00,weatherlink.com 1.10,2013-09-11 09:52:00,
2013-09-11 06:07:00,73.8,68.0,29.91,WSW,245,0.0,0.0,81,0.00,,,0.00,weatherlink.com 1.10,2013-09-11 10:07:00,
2013-09-11 06:22:00,73.1,67.0,29.92,WSW,248,0.0,0.0,82,0.00,,,0.00,weatherlink.com 1.10,2013-09-11 10:22:00,
2013-09-11 06:37:00,72.8,68.0,29.92,WSW,248,0.0,0.0,84,0.00,,,0.00,weatherlink.com 1.10,2013-09-11 10:37:00,
2013-09-11 06:52:00,72.7,68.0,29.92,SW,225,0.0,0.0,84,0.00,,,0.00,weatherlink.com 1.10,2013-09-11 10:52:00,
2013-09-11 07:07:00,72.8,68.0,29.93,West,273,0.0,0.0,84,0.00,,,0.00,weatherlink.com 1.10,2013-09-11 11:07:00,
2013-09-11 07:22:00,72.8,68.0,29.93,West,262,0.0,0.0,84,0.00,,,0.00,weatherlink.com 1.10,2013-09-11 11:22:00,
2013-09-11 07:37:00,73.4,68.0,29.93,WSW,241,0.0,0.0,83,0.00,,,0.00,weatherlink.com 1.10,2013-09-11 11:37:00,
2013-09-11 07:52:00,73.3,68.0,29.94,WSW,249,0.0,0.0,84,0.00,,,0.00,weatherlink.com 1.10,2013-09-11 11:52:00,
2013-09-11 08:07:00,73.5,68.0,29.95,WNW,292,0.0,0.0,84,0.00,,,0.00,weatherlink.com 1.10,2013-09-11 12:07:00,
2013-09-11 08:22:00,73.7,69.0,29.95,WNW,287,0.0,0.0,84,0.00,,,0.00,weatherlink.com 1.10,2013-09-11 12:22:00,
2013-09-11 08:37:00,74.0,69.0,29.95,WNW,287,0.0,0.0,85,0.00,,,0.00,weatherlink.com 1.10,2013-09-11 12:37:00,
2013-09-11 08:52:00,74.5,69.0,29.96,WNW,297,0.0,0.0,84,0.00,,,0.00,weatherlink.com 1.10,2013-09-11 12:52:00,
2013-09-11 09:07:00,74.6,70.0,29.95,WNW,292,0.0,0.0,84,0.00,,,0.00,weatherlink.com 1.10,2013-09-11 13:07:00,
2013-09-11 09:22:00,74.8,70.0,29.95,WNW,293,0.0,0.0,85,0.00,,,0.00,weatherlink.com 1.10,2013-09-11 13:22:00,
2013-09-11 09:37:00,75.3,71.0,29.96,WNW,288,0.0,2.0,85,0.00,,,0.00,weatherlink.com 1.10,2013-09-11 13:37:00,
2013-09-11 09:52:00,76.5,71.0,29.96,WNW,300,0.0,0.0,83,0.00,,,0.00,weatherlink.com 1.10,2013-09-11 13:52:00,
2013-09-11 10:07:00,77.3,71.0,29.96,NW,304,0.0,0.0,81,0.00,,,0.00,weatherlink.com 1.10,2013-09-11 14:07:00,
2013-09-11 10:22:00,77.8,72.0,29.96,WNW,294,0.0,0.0,81,0.00,,,0.00,weatherlink.com 1.10,2013-09-11 14:22:00,
2013-09-11 10:37:00,77.7,71.0,29.98,WNW,284,2.0,5.0,81,0.00,,,0.00,weatherlink.com 1.10,2013-09-11 14:37:00,
2013-09-11 10:52:00,77.9,72.0,29.97,WNW,285,0.0,4.0,81,0.00,,,0.00,weatherlink.com 1.10,2013-09-11 14:52:00,
2013-09-11 11:07:00,77.9,71.0,29.97,WNW,295,0.0,0.0,79,0.00,,,0.00,weatherlink.com 1.10,2013-09-11 15:07:00,
2013-09-11 11:22:00,79.3,70.0,29.96,WNW,287,0.0,0.0,74,0.00,,,0.00,weatherlink.com 1.10,2013-09-11 15:22:00,
2013-09-11 11:37:00,79.4,70.0,29.96,WNW,288,0.0,0.0,73,0.00,,,0.00,weatherlink.com 1.10,2013-09-11 15:37:00,
2013-09-11 11:52:00,79.9,70.0,29.95,ESE,108,0.0,0.0,72,0.00,,,0.00,weatherlink.com 1.10,2013-09-11 15:52:00,
2013-09-11 12:07:00,80.6,71.0,29.94,SE,135,0.0,0.0,73,0.00,,,0.00,weatherlink.com 1.10,2013-09-11 16:07:00,
2013-09-11 12:22:00,81.2,70.0,29.93,SE,136,0.0,0.0,69,0.00,,,0.00,weatherlink.com 1.10,2013-09-11 16:22:00,
2013-09-11 12:37:00,82.0,69.0,29.92,SE,134,0.0,1.0,65,0.00,,,0.00,weatherlink.com 1.10,2013-09-11 16:37:00,
2013-09-11 12:52:00,82.2,70.0,29.93,NNW,331,0.0,0.0,66,0.00,,,0.00,weatherlink.com 1.10,2013-09-11 16:52:00,
2013-09-11 13:07:00,81.7,70.0,29.94,NW,309,0.0,0.0,68,0.00,,,0.00,weatherlink.com 1.10,2013-09-11 17:07:00,
2013-09-11 13:22:00,83.0,70.0,29.93,WNW,291,0.0,0.0,66,0.00,,,0.00,weatherlink.com 1.10,2013-09-11 17:22:00,
2013-09-11 13:37:00,83.1,69.0,29.93,WNW,293,0.0,0.0,62,0.00,,,0.00,weatherlink.com 1.10,2013-09-11 17:37:00,
2013-09-11 13:52:00,82.5,68.0,29.93,NW,309,0.0,0.0,62,0.00,,,0.00,weatherlink.com 1.10,2013-09-11 17:52:00,
2013-09-11 14:07:00,82.4,68.0,29.93,WNW,291,0.0,1.0,61,0.00,,,0.00,weatherlink.com 1.10,2013-09-11 18:07:00,
2013-09-11 14:22:00,82.7,67.0,29.92,WNW,289,1.0,3.0,60,0.00,,,0.00,weatherlink.com 1.10,2013-09-11 18:22:00,
2013-09-11 14:38:00,82.6,66.0,29.92,West,276,1.0,5.0,58,0.00,,,0.00,weatherlink.com 1.10,2013-09-11 18:38:00,
2013-09-11 14:53:00,82.8,67.0,29.92,WNW,287,1.0,4.0,60,0.00,,,0.00,weatherlink.com 1.10,2013-09-11 18:53:00,
2013-09-11 15:08:00,82.3,67.0,29.92,WNW,297,2.0,3.0,61,0.00,,,0.00,weatherlink.com 1.10,2013-09-11 19:08:00,
2013-09-11 15:23:00,81.8,66.0,29.92,NW,304,4.0,4.0,59,0.00,,,0.00,weatherlink.com 1.10,2013-09-11 19:23:00,
2013-09-11 15:38:00,81.1,66.0,29.92,WNW,298,3.0,3.0,60,0.00,,,0.00,weatherlink.com 1.10,2013-09-11 19:38:00,
2013-09-11 15:53:00,80.5,65.0,29.93,WNW,288,1.0,3.0,60,0.00,,,0.00,weatherlink.com 1.10,2013-09-11 19:53:00,
2013-09-11 16:08:00,80.1,65.0,29.93,West,277,2.0,4.0,60,0.00,,,0.00,weatherlink.com 1.10,2013-09-11 20:08:00,
2013-09-11 16:38:00,78.0,66.0,29.93,WNW,291,0.0,3.0,66,0.00,,,0.00,weatherlink.com 1.10,2013-09-11 20:38:00,
2013-09-11 16:53:00,77.4,66.0,29.94,WSW,256,1.0,2.0,69,0.00,,,0.00,weatherlink.com 1.10,2013-09-11 20:53:00,
2013-09-11 17:08:00,76.4,66.0,29.94,WNW,283,1.0,2.0,71,0.00,,,0.00,weatherlink.com 1.10,2013-09-11 21:08:00,
2013-09-11 17:23:00,76.2,67.0,29.92,WNW,301,0.0,0.0,72,0.00,,,0.00,weatherlink.com 1.10,2013-09-11 21:23:00,
2013-09-11 17:38:00,76.3,67.0,29.92,WNW,284,0.0,2.0,74,0.00,,,0.00,weatherlink.com 1.10,2013-09-11 21:38:00,
2013-09-11 17:53:00,76.5,67.0,29.92,WNW,293,0.0,0.0,72,0.00,,,0.00,weatherlink.com 1.10,2013-09-11 21:53:00,
2013-09-11 18:08:00,76.1,66.0,29.91,WNW,285,0.0,2.0,71,0.00,,,0.00,weatherlink.com 1.10,2013-09-11 22:08:00,
2013-09-11 18:23:00,75.8,66.0,29.91,WNW,301,2.0,3.0,71,0.00,,,0.00,weatherlink.com 1.10,2013-09-11 22:23:00,
2013-09-11 18:38:00,75.6,66.0,29.91,NW,308,0.0,0.0,73,0.00,,,0.00,weatherlink.com 1.10,2013-09-11 22:38:00,
2013-09-11 18:53:00,75.5,67.0,29.91,NW,308,0.0,0.0,74,0.00,,,0.00,weatherlink.com 1.10,2013-09-11 22:53:00,
2013-09-11 19:08:00,75.2,66.0,29.91,NW,318,0.0,0.0,74,0.00,,,0.00,weatherlink.com 1.10,2013-09-11 23:08:00,
2013-09-11 19:23:00,74.9,66.0,29.91,NW,318,0.0,0.0,74,0.00,,,0.00,weatherlink.com 1.10,2013-09-11 23:23:00,
2013-09-11 19:38:00,74.8,66.0,29.91,NW,318,0.0,0.0,75,0.00,,,0.00,weatherlink.com 1.10,2013-09-11 23:38:00,
2013-09-11 20:08:00,73.6,66.0,29.91,NE,34,0.0,0.0,78,0.00,,,0.00,weatherlink.com 1.10,2013-09-12 00:08:00,
2013-09-11 20:23:00,72.6,66.0,29.91,NNW,333,0.0,0.0,80,0.00,,,0.00,weatherlink.com 1.10,2013-09-12 00:23:00,
2013-09-11 20:38:00,71.8,66.0,29.90,NNW,333,0.0,0.0,81,0.00,,,0.00,weatherlink.com 1.10,2013-09-12 00:38:00,
2013-09-11 20:53:00,71.0,66.0,29.91,NNW,335,0.0,0.0,83,0.00,,,0.00,weatherlink.com 1.10,2013-09-12 00:53:00,
2013-09-11 21:08:00,70.2,66.0,29.91,NNW,335,0.0,0.0,85,0.00,,,0.00,weatherlink.com 1.10,2013-09-12 01:08:00,
2013-09-11 21:23:00,69.7,66.0,29.91,North,1,0.0,0.0,87,0.00,,,0.00,weatherlink.com 1.10,2013-09-12 01:23:00,
2013-09-11 21:38:00,69.3,65.0,29.92,North,6,0.0,0.0,87,0.00,,,0.00,weatherlink.com 1.10,2013-09-12 01:38:00,
2013-09-11 21:53:00,69.0,65.0,29.91,ESE,105,0.0,0.0,88,0.00,,,0.00,weatherlink.com 1.10,2013-09-12 01:53:00,
2013-09-11 22:08:00,68.9,66.0,29.92,ESE,105,0.0,0.0,89,0.00,,,0.00,weatherlink.com 1.10,2013-09-12 02:08:00,
2013-09-11 22:23:00,68.6,65.0,29.91,ESE,108,0.0,0.0,89,0.00,,,0.00,weatherlink.com 1.10,2013-09-12 02:23:00,
2013-09-11 22:38:00,68.3,65.0,29.91,ESE,107,0.0,0.0,90,0.00,,,0.00,weatherlink.com 1.10,2013-09-12 02:38:00,
2013-09-11 22:53:00,67.9,65.0,29.91,ESE,108,0.0,0.0,91,0.00,,,0.00,weatherlink.com 1.10,2013-09-12 02:53:00,
2013-09-11 23:08:00,67.7,65.0,29.90,ESE,108,0.0,0.0,92,0.00,,,0.00,weatherlink.com 1.10,2013-09-12 03:08:00,
2013-09-11 23:23:00,67.4,65.0,29.91,ESE,108,0.0,0.0,92,0.00,,,0.00,weatherlink.com 1.10,2013-09-12 03:23:00,
2013-09-11 23:38:00,67.2,65.0,29.91,ESE,108,0.0,0.0,93,0.00,,,0.00,weatherlink.com 1.10,2013-09-12 03:38:00,
2013-09-11 23:53:00,67.2,66.0,29.90,ESE,107,0.0,0.0,94,0.00,,,0.00,weatherlink.com 1.10,2013-09-12 03:53:00,